TimePST,TemperatureF,Dew PointF,Humidity,Sea Level PressureIn,VisibilityMPH,Wind Direction,Wind SpeedMPH,Gust SpeedMPH,PrecipitationIn,Events,Conditions,WindDirDegrees,DateUTC
12:56 AM,30.9,21.9,69,30.37,6.0,NE,3.5,-,N/A,,Haze,40,2013-12-17 08:56:00
1:56 AM,28.9,21.0,72,30.37,7.0,NE,3.5,-,N/A,,Clear,40,2013-12-17 09:56:00
2:56 AM,28.0,21.0,75,30.37,6.0,Calm,Calm,-,N/A,,Haze,0,2013-12-17 10:56:00
3:56 AM,28.9,21.0,72,30.35,10.0,NE,3.5,-,N/A,,Clear,40,2013-12-17 11:56:00
4:56 AM,28.0,19.9,72,30.36,10.0,NE,3.5,-,N/A,,Clear,40,2013-12-17 12:56:00
5:56 AM,28.0,19.9,72,30.37,8.0,Variable,3.5,-,N/A,,Clear,0,2013-12-17 13:56:00
6:56 AM,28.9,19.9,69,30.38,10.0,NE,3.5,-,N/A,,Clear,40,2013-12-17 14:56:00
7:56 AM,28.9,21.0,72,30.38,5.0,Variable,3.5,-,N/A,,Haze,0,2013-12-17 15:56:00
8:56 AM,30.9,21.9,69,30.38,7.0,Variable,3.5,-,N/A,,Clear,0,2013-12-17 16:56:00
9:56 AM,39.0,25.0,57,30.37,10.0,Calm,Calm,-,N/A,,Clear,0,2013-12-17 17:56:00
10:56 AM,48.0,26.1,42,30.33,10.0,Variable,3.5,-,N/A,,Clear,0,2013-12-17 18:56:00
11:56 AM,52.0,26.1,37,30.29,10.0,Variable,3.5,-,N/A,,Clear,0,2013-12-17 19:56:00
12:56 PM,54.0,27.0,35,30.25,10.0,Variable,4.6,-,N/A,,Clear,0,2013-12-17 20:56:00
1:56 PM,57.0,26.1,30,30.23,10.0,Variable,4.6,-,N/A,,Clear,0,2013-12-17 21:56:00
2:56 PM,57.0,27.0,32,30.22,10.0,Calm,Calm,-,N/A,,Clear,0,2013-12-17 22:56:00
3:56 PM,55.0,27.0,34,30.22,10.0,Calm,Calm,-,N/A,,Clear,0,2013-12-17 23:56:00
4:56 PM,46.9,26.1,44,30.24,10.0,Calm,Calm,-,N/A,,Clear,0,2013-12-18 00:56:00
5:56 PM,39.0,26.1,60,30.26,4.0,Calm,Calm,-,N/A,,Haze,0,2013-12-18 01:56:00
6:56 PM,35.1,23.0,61,30.26,5.0,Calm,Calm,-,N/A,,Haze,0,2013-12-18 02:56:00
7:56 PM,34.0,21.9,61,30.27,9.0,Calm,Calm,-,N/A,,Clear,0,2013-12-18 03:56:00
8:56 PM,33.1,21.0,61,30.27,7.0,NE,3.5,-,N/A,,Clear,50,2013-12-18 04:56:00
9:56 PM,30.9,19.9,64,30.24,4.0,Calm,Calm,-,N/A,,Haze,0,2013-12-18 05:56:00
10:56 PM,30.9,19.9,64,30.22,5.0,NNW,3.5,-,N/A,,Haze,340,2013-12-18 06:56:00
11:56 PM,30.9,19.9,64,30.20,10.0,Calm,Calm,-,N/A,,Clear,0,2013-12-18 07:56:00